User: anonymous   Login
Location: eljas
(40.1958°N, 6.8661°W)
Time: 13:35:20
(UTC+01:00)
Language:

Okean O Rocket - Orbit

View from above orbital plane
View from above orbital plane
View from above satellite
View from above satellite

Ground track
Ground track

The orbit data is extracted from the following two-line orbital elements,

1 25861U 99039B   17054.54459951  .00000069  00000-0  16784-4 0  9996
2 25861  98.0908  25.1837 0017078  87.7634  29.2006 14.78387374948981
Epoch (UTC): 23 February 2017 13:04:13
Eccentricity: 0.0017078
inclination: 98.0908°
perigee height: 622 km
apogee height: 646 km
right ascension of ascending node: 25.1837°
argument of perigee: 87.7634°
revolutions per day: 14.78387374
mean anomaly at epoch: 29.2006°
orbit number at epoch: 94898

The dashed part of the orbit path shows where the satellite is in the earth's shadow,  

DLR